Regional Weather Roundup
Issued by NWS

Home | Current Version | Previous Version | Text Only | Print | Product List | Glossary On
Versions: 1 2 3 4 5 6 7 8 9 10 11 12 13 14 15 16 17 18 19 20 21 22 23 24 25 26 27 28 29 30 31 32 33 34 35 36 37 38 39 40 41 42 43 44 45 46 47 48 49 50
105
ASUS43 KMPX 140110
RWRMN
WEATHER ROUNDUP FOR MINNESOTA
NATIONAL WEATHER SERVICE TWIN CITIES/CHANHASSEN MN
700 PM CST SAT FEB 13 2016


NOTE: "FAIR" INDICATES FEW OR NO CLOUDS BELOW 12,000 FEET WITH NO
SIGNIFICANT WEATHER AND/OR OBSTRUCTIONS TO VISIBILITY. N/A MEANS
CURRENT SKY AND/OR WEATHER CONDITIONS ARE NOT AVAILABLE.

MNZ060>063-068>070-140200-
   Twin Cities Metro

CITY           SKY/WX    TMP DP  RH WIND       PRES   REMARKS
TWIN CITIES    CLOUDY     7  -8  50 SE8       30.42F WCI  -6
ST PAUL        CLOUDY     7  -8  50 SE8       30.44F WCI  -6
CRYSTAL        CLOUDY     8  -8  48 S9        30.40F WCI  -5
BLAINE         PTCLDY     9  -6  52 SE5       30.39F WCI   0
LAKEVILLE      CLOUDY     3  -6  66 S3        30.41S
EDEN PRAIRIE   CLOUDY     7  -7  52 SE9       30.40F WCI  -7
SOUTH ST PAUL  CLOUDY     8  -8  49 SE3       30.42F
LAKE ELMO      FAIR       5  -8  56 CALM      30.42F
$$
MNZ001>005-007-008-013>017-022>024-027-028-140200-
   Northwest Minnesota

CITY           SKY/WX    TMP DP  RH WIND       PRES   REMARKS
BEMIDJI        CLOUDY     3 -11  52 SE12      30.24F WCI -13
HALLOCK        CLOUDY    10  -2  56 SE18      30.17F WCI  -8
ROSEAU         CLOUDY     5  -9  51 SE10      30.23F WCI -10
WARROAD        CLOUDY     0 -11  60 SE7       30.24F WCI -13
THIEF RVR FALL CLOUDY    12  -6  44 SE20      30.19F WCI  -6
CROOKSTON      CLOUDY    12   0  57 S22       30.21F WCI  -7
FOSSTON        CLOUDY     9  -9  43 SE13G20   30.22F WCI  -7
DETROIT LAKES  CLOUDY    10   0  61 SE18G25   30.21F WCI  -8
MOORHEAD       CLOUDY    12   1  62 SE18G26   30.20F WCI  -5
PARK RAPIDS    CLOUDY     6 -10  47 SE12      30.25F WCI  -9
MAHNOMEN       CLOUDY    10  -5  51 SE17G23   30.20F WCI  -8
$$
MNZ006-009>011-018-025>026-140200-
   North Central Minnesota

CITY           SKY/WX    TMP DP  RH WIND       PRES   REMARKS
BAUDETTE       CLOUDY     2 -14  47 SE9       30.25F WCI -13
FLAG ISLAND    CLOUDY     1 -13  51 SE5       30.25F WCI  -8
INTL FALLS     CLOUDY    -4 -15  59 E8        30.30F WCI -19
WASKISH        CLOUDY     1 -11  55 CALM      30.28S
LONGVILLE      CLOUDY     3 -13  47 SE5       30.30F WCI  -6
GRAND RAPIDS   CLOUDY     1 -15  46 SE3       30.31S
CRANE LAKE     CLOUDY    -9 -15  77 CALM      30.36S
ORR            CLOUDY     0 -17  46 CALM      30.29F
COOK           CLOUDY    -4 -15  59 CALM      30.32F
WALKER         FAIR       5 -13  43 SE6       30.27F WCI  -6
$$
MNZ012-019>021-037-140200-
   Northeast Minnesota

CITY           SKY/WX    TMP DP  RH WIND       PRES   REMARKS
DULUTH         CLOUDY     1 -13  51 E3        30.33F
ELY            CLOUDY    -8 -13  77 CALM      30.33S
HIBBING        CLOUDY    -4 -14  62 SE5       30.32F WCI -15
EVELETH        CLOUDY    -2 -13  60 CALM      30.34F
DULUTH HARBOR  CLOUDY    10 -15  31 CALM      30.43F
TWO HARBORS    CLEAR      1  -9  60 CALM      30.36F
SILVER BAY     CLEAR      0  -6  78 CALM      30.36F
GRAND MARAIS     N/A      0  -6  76 NW6       30.42F WCI -12
G MARAIS ARPRT CLOUDY    -9 -15  77 NW3       30.30F
$$
MNZ029>031-032-039>041-046>048-054>057-064-140200-
   West Central Minnesota

CITY           SKY/WX    TMP DP  RH WIND       PRES   REMARKS
FERGUS FALLS   CLOUDY    12   0  57 SE20G25   30.26S WCI  -6
WHEATON        CLOUDY    10   3  72 SE25      30.22F WCI -10
MORRIS         CLOUDY    10   0  61 SE23      30.23S WCI -10
ALEXANDRIA     CLOUDY     9  -1  64 SE17      30.23F WCI  -9
ELBOW LAKE     CLOUDY    10  -1  61 E21G26    30.22F WCI  -9
WADENA         CLOUDY     5  -6  61 SE13      30.24F WCI -12
GLENWOOD       CLOUDY     9   0  66 SE17G24   30.25F WCI -10
APPLETON       CLOUDY    10   1  67 SE15G21   30.26S WCI  -6
BENSON         FLURRIES  10  -2  56 S15       30.26F WCI  -6
ORTONVILLE     CLOUDY    10   1  67 SE20G25   30.21F WCI  -8
MADISON        CLOUDY    12   3  67 SE21      30.24F WCI  -6
WILLMAR        CLOUDY    10   1  67 SE20      30.29F WCI  -8
$$
MNZ033>034-036-042>043-049>051-058-059-140200-
   Central Minnesota

CITY           SKY/WX    TMP DP  RH WIND       PRES   REMARKS
ST CLOUD       CLOUDY     8  -8  48 SE7       30.35F WCI  -3
SAUK CENTRE    CLOUDY     8  -2  63 SE13      30.28F WCI  -7
PAYNESVILLE    CLOUDY     9  -2  61 SE9       30.31F WCI  -4
AITKIN         CLOUDY     3 -15  43 SE5       30.33F WCI  -6
PINE RIVER     CLOUDY     1  -9  60 SE5       30.33F WCI  -8
BRAINERD       CLOUDY     1 -11  57 CALM      30.32F
STAPLES        CLOUDY     3  -8  60 SE6       30.28F WCI  -8
LONG PRAIRIE   CLOUDY     9  -4  56 E12G18    30.28F WCI  -6
LITTLE FALLS   CLOUDY     7  -8  51 SE7       30.33F WCI  -5
LITCHFIELD     CLOUDY     9   0  66 SE13      30.33F WCI  -7
BUFFALO        MOCLDY     8  -7  50 SE7       30.38F WCI  -3
MAPLE LAKE     CLOUDY    10  -2  58 SE7       30.37F WCI  -2
$$
MNZ037-044-045-052-053-140200-
   East Central Minnesota

CITY           SKY/WX    TMP DP  RH WIND       PRES   REMARKS
PRINCETON      CLOUDY     9  -8  47 E6        30.37F WCI  -1
MORA           CLOUDY     5  -8  56 SE3       30.40F
CAMBRIDGE      CLOUDY     9  -6  52 CALM      30.38F
RUSH CITY      CLOUDY     5  -9  51 SE6       30.41F WCI  -6
MOOSE LAKE     CLOUDY     3 -13  47 S3        30.36F
HINCKLEY       FAIR       5  -9  51 SE3       30.40S
CLOQUET        CLOUDY     0 -15  50 CALM      30.35F
MCGREGOR       CLOUDY     5  -9  51 S6        30.35F WCI  -6
$$
MNZ071>073-080-081-089-090-097-098-140200-
   Southwest Minnesota

CITY           SKY/WX    TMP DP  RH WIND       PRES   REMARKS
MONTEVIDEO     CLOUDY     9   1  72 S18G24    30.28F WCI -10
GRANITE FALLS  CLOUDY    12   4  70 SE18G26   30.29F WCI  -6
CANBY          CLOUDY    14   5  66 E17       30.23F WCI  -2
MARSHALL       CLOUDY    10   1  67 SE18      30.25F WCI  -8
REDWOOD FALLS  CLOUDY    10   3  73 SE20      30.31F WCI  -9
OLIVIA         CLOUDY    10   3  72 SE15      30.30F WCI  -6
PIPESTONE      LGT SNOW  10  -2  56 S18G24    30.17F WCI  -8
WINDOM         CLOUDY     9   1  72 SE13      30.26F WCI  -7
WORTHINGTON    CLOUDY     7  -2  66 SE15      30.23F WCI -11
JACKSON        CLOUDY    10   0  61 SE15      30.28F WCI  -6
TRACY          CLOUDY    10   2  70 SE13G21   30.25F WCI  -5
SLAYTON        CLOUDY     8   2  75 SE20      30.21F WCI -11
$$
MNZ065>067-074>077-082>085-091>093-140200-
   South Central Minnesota

CITY           SKY/WX    TMP DP  RH WIND       PRES   REMARKS
MANKATO        CLOUDY     9  -2  61 SE16      30.36F WCI  -9
NEW ULM        CLOUDY     9  -2  61 SE14      30.34F WCI  -8
ST JAMES       CLOUDY    10   3  72 SE17      30.34F WCI  -7
FAIRMONT       CLOUDY    10   0  61 SE17      30.31F WCI  -7
GLENCOE        CLOUDY    10   2  68 SE13      30.36F WCI  -5
FARIBAULT      CLOUDY     7  -6  56 SE9       30.40S WCI  -7
OWATONNA       CLOUDY     5  -8  56 SE10      30.38F WCI -10
WASECA         CLOUDY     7  -2  66 SE13      30.39F WCI  -9
ALBERT LEA     CLOUDY     7  -2  66 SE10      30.37F WCI  -8
$$
MNZ078>079-086>088-094>096-140200-
   Southeast Minnesota

CITY           SKY/WX    TMP DP  RH WIND       PRES   REMARKS
ROCHESTER      CLOUDY     0 -10  63 S7        30.38F WCI -13
RED WING       CLOUDY     7 -11  43 SE2       30.44S
STANTON        CLOUDY     5  -6  59 CALM      30.41R
DODGE CENTER   CLOUDY     0  -9  65 SE8       30.37F WCI -15
WINONA         CLOUDY     9  -4  56 CALM      30.47F
AUSTIN         CLOUDY     1  -4  78 SE6       30.38F WCI -10
PRESTON        CLOUDY     0 -10  60 S5        30.40F WCI -10
$$
ABBREVIATIONS USED IN REMARKS
   TC - TEMPERATURES IN CELSIUS
  WCI - WIND CHILL INDEX
   HX - HEAT INDEX
  VSB - VISIBILITY
$$




USA.gov is the U.S. government's official web portal to all federal, state and local government web resources and services.